Location: Lake Runnemede Observatory
(43.4843°N, 72.3851°W)
Time: 06:52:29
(UTC-04:00)

Amateur Radio Satellites - All Passes

Search period start: 24 July 2017 06:22
Search period end: 25 July 2017 06:22
Location: Lake Runnemede Observatory, 43.4843°N, 72.3851°W

Satellite Date Start Highest point End Downlink Frequencies (MHz)
Time Altitude Azimuth
AO-7 24 Jul 06:26:32 06:33:21 29° 306° (NW) 06:40:09 .
DOVE 4 24 Jul 06:29:31 06:34:52 88° 108° (ESE) 06:40:00 437.250
XW-2D 24 Jul 06:34:25 06:37:56 37° 98° (E) 06:41:26 145.860 - 145.880
XW-2B 24 Jul 06:44:21 06:48:00 47° 99° (E) 06:51:38 145.730 - 145.750
PCSat 24 Jul 06:49:42 06:54:36 34° 311° (NW) 06:59:33 145.827
HO-68 24 Jul 06:57:03 07:02:08 20° 90° (E) 07:07:11 435.675
CUTE 1.7 + AOD 2 24 Jul 06:57:39 06:59:19 12° 89° (E) 07:01:00 437.475
XW-2C 24 Jul 07:01:33 07:05:19 81° 100° (E) 07:09:05 145.795 - 145.815
CUTE-I 24 Jul 07:02:18 07:07:37 59° 101° (E) 07:12:53 437.470
SEEDS 24 Jul 07:12:41 07:13:46 11° 89° (E) 07:14:52 437.485
NUDT-PHONESAT 24 Jul 07:14:07 07:17:48 85° 102° (ESE) 07:21:29 437.300
STRAND 1 24 Jul 07:18:08 07:23:17 80° 74° (ENE) 07:28:28 437.568
LilacSat-2 24 Jul 07:23:39 07:27:19 50° 287° (WNW) 07:31:00 437.200
KAITUO 1B 24 Jul 07:26:46 07:30:27 64° 284° (WNW) 07:34:08 145.475/437.950
XW-2F 24 Jul 07:40:40 07:44:06 35° 288° (WNW) 07:47:31 145.980 - 146.000
YUBILEINY 24 Jul 07:49:17 07:56:42 32° 277° (W) 08:04:05 435.215
SO-50 24 Jul 07:53:17 07:57:31 38° 312° (NW) 08:01:45 436.795
AAUSAT CUBESAT 2 24 Jul 07:58:21 08:01:02 16° 92° (E) 08:03:42 437.432
CUBEBUG 2 24 Jul 07:59:36 08:03:19 29° 95° (E) 08:06:58 437.445
DOVE 4 24 Jul 08:09:04 08:11:43 14° 301° (WNW) 08:14:20 437.250
XW-2D 24 Jul 08:09:25 08:11:50 16° 294° (WNW) 08:14:14 145.860 - 145.880
FO-29 24 Jul 08:16:56 08:23:27 32° 61° (ENE) 08:30:06 435.910
XW-2B 24 Jul 08:19:54 08:21:47 13° 296° (WNW) 08:23:40 145.730 - 145.750
AO-73 24 Jul 08:22:02 08:24:20 14° 91° (E) 08:26:36 145.935
TIGRISAT 24 Jul 08:29:40 08:31:11 12° 60° (ENE) 08:32:43 435.000
CUTE 1.7 + AOD 2 24 Jul 08:31:21 08:35:33 62° 286° (WNW) 08:39:45 437.475
CUTE-I 24 Jul 08:43:20 08:47:12 21° 299° (WNW) 08:51:04 437.470
HO-68 24 Jul 08:43:24 08:50:34 78° 289° (WNW) 08:57:42 435.675
SEEDS 24 Jul 08:45:42 08:49:54 68° 285° (WNW) 08:54:06 437.485
XW-2A 24 Jul 08:49:40 08:52:53 49° 286° (WNW) 08:56:06 145.665 - 145.685
UWE-3 24 Jul 08:59:39 09:03:52 79° 102° (ESE) 09:08:00 435.000/436.395/437.385
STRAND 1 24 Jul 09:00:45 09:03:04 13° 271° (W) 09:05:22 437.568
M-CUBED/EXP-1 PRIME 24 Jul 09:05:44 09:07:59 15° 57° (ENE) 09:10:19 437.505
ZACube-1 24 Jul 09:15:51 09:19:59 65° 101° (E) 09:24:05 437.345
UNISAT 6 24 Jul 09:18:27 09:22:42 36° 70° (ENE) 09:26:54 437.425
AAUSAT CUBESAT 2 24 Jul 09:32:43 09:36:42 44° 288° (WNW) 09:40:39 437.432
PRISM 24 Jul 09:35:13 09:39:05 43° 71° (ENE) 09:43:01 437.425
CUBEBUG 2 24 Jul 09:36:19 09:39:51 25° 293° (WNW) 09:43:18 437.445
Oscar 11 24 Jul 09:43:50 09:48:10 89° 94° (E) 09:52:29 .
EO-88 24 Jul 09:53:30 09:55:50 16° 93° (E) 09:58:10 145.990 - 145.960
AO-73 24 Jul 09:56:51 10:00:51 48° 288° (WNW) 10:04:49 145.935
FO-29 24 Jul 10:00:22 10:07:53 65° 260° (W) 10:15:45 435.910
TIGRISAT 24 Jul 10:02:32 10:07:12 87° 258° (WSW) 10:11:48 435.000
EO-79 24 Jul 10:23:13 10:24:08 11° 60° (ENE) 10:25:03 145.935-145.965
HO-68 24 Jul 10:32:55 10:37:11 17° 309° (NW) 10:41:26 435.675
M-CUBED/EXP-1 PRIME 24 Jul 10:38:31 10:41:58 46° 256° (WSW) 10:45:45 437.505
UWE-3 24 Jul 10:38:50 10:39:40 10° 300° (WNW) 10:40:29 435.000/436.395/437.385
DELFI C3 24 Jul 10:44:16 10:48:16 73° 284° (WNW) 10:52:15 145.870
ZACube-1 24 Jul 10:54:01 10:55:44 12° 298° (WNW) 10:57:26 437.345
UNISAT 6 24 Jul 10:55:41 10:59:27 24° 266° (W) 11:03:12 437.425
PRISM 24 Jul 11:12:01 11:14:35 16° 268° (W) 11:17:12 437.425
AIST 2D 24 Jul 11:22:45 11:26:14 81° 258° (WSW) 11:29:43 435.315
EO-88 24 Jul 11:26:18 11:29:37 33° 289° (WNW) 11:32:54 145.990 - 145.960
DUCHIFAT 1 24 Jul 11:28:52 11:32:50 40° 71° (ENE) 11:36:49 145.980
POLYITAN 1 24 Jul 11:29:43 11:33:52 52° 73° (ENE) 11:38:01 437.675
LO-87 24 Jul 11:33:35 11:36:55 34° 97° (E) 11:40:12 145.935 - 145.965
QB50P2 24 Jul 11:42:34 11:46:50 79° 75° (ENE) 11:51:07 145.880/145.840
NO-84 24 Jul 11:51:34 11:54:37 78° 141° (SE) 11:57:56 435.350 FM
FO-29 24 Jul 11:51:38 11:54:20 12° 279° (W) 11:57:05 435.910
EO-79 24 Jul 11:54:57 11:59:14 83° 259° (WSW) 12:03:31 145.935-145.965
NANOSAT C BR1 24 Jul 11:55:36 11:59:51 90° 129° (SE) 12:04:08 145.865
BUGSAT 1 24 Jul 12:01:44 12:05:22 28° 68° (ENE) 12:08:58 437.445
PCSat 24 Jul 12:11:33 12:12:46 11° 29° (NNE) 12:13:59 145.827
ESTCUBE 1 24 Jul 12:16:58 12:21:29 66° 101° (ESE) 12:25:59 437.505/2401.250
SPROUT 24 Jul 12:28:56 12:32:19 23° 94° (E) 12:35:41 437.525
DUCHIFAT 1 24 Jul 13:05:40 13:08:38 18° 267° (W) 13:11:38 145.980
VELOX 1 24 Jul 13:06:37 13:10:58 48° 100° (E) 13:15:16 145.980
BEESAT 3 24 Jul 13:06:49 13:10:45 64° 122° (ESE) 13:14:46 437.485
POLYITAN 1 24 Jul 13:07:31 13:09:57 15° 269° (W) 13:12:22 437.675
LO-87 24 Jul 13:07:47 13:10:04 16° 294° (WNW) 13:12:20 145.935 - 145.965
Oscar 19 24 Jul 13:13:49 13:18:53 67° 73° (ENE) 13:23:59 437.125/150
DX 1 24 Jul 13:15:45 13:18:54 19° 93° (E) 13:22:01 434.975-435.025
AO-85 24 Jul 13:25:41 13:29:41 80° 306° (NW) 13:33:37 145.980
NO-84 24 Jul 13:29:58 13:32:28 20° 340° (NNW) 13:35:08 435.350 FM
Gurwin Techsat 1B 24 Jul 13:32:51 13:38:06 65° 72° (ENE) 13:43:23 435.225
BUGSAT 1 24 Jul 13:37:02 13:40:39 27° 264° (W) 13:44:17 437.445
AO-7 24 Jul 13:42:36 13:49:15 27° 53° (NE) 13:55:54 .
BEESAT 2 24 Jul 13:44:42 13:48:36 54° 119° (ESE) 13:52:33 435.950
PCSat 24 Jul 13:52:29 13:57:40 43° 52° (NE) 14:02:49 145.827
ESTCUBE 1 24 Jul 13:55:20 13:57:45 14° 299° (WNW) 14:00:09 437.505/2401.250
UKube-1 24 Jul 13:59:29 14:03:30 36° 98° (E) 14:07:29 .
SPROUT 24 Jul 14:04:26 14:08:17 33° 291° (WNW) 14:12:05 437.525
50 SAT 24 Jul 14:17:10 14:20:32 50° 286° (WNW) 14:23:51 437.505
SO-50 24 Jul 14:42:46 14:46:59 36° 47° (NE) 14:51:13 436.795
VELOX 1 24 Jul 14:43:59 14:47:02 18° 297° (WNW) 14:50:04 145.980
BEESAT 3 24 Jul 14:46:01 14:48:44 17° 320° (NW) 14:51:28 437.485
RS-15 24 Jul 14:46:07 14:55:52 30° 102° (ESE) 15:05:42 29.354- 29.394
O/OREOS (USA 219) 24 Jul 14:47:18 14:50:36 20° 102° (ESE) 14:53:55 437.305
DX 1 24 Jul 14:51:06 14:55:15 42° 290° (WNW) 14:59:23 434.975-435.025
Oscar 19 24 Jul 14:55:41 14:58:41 15° 270° (W) 15:01:40 437.125/150
ITAMSAT 1 24 Jul 15:03:30 15:08:35 56° 71° (ENE) 15:13:43 435.822/435.867
AO-85 24 Jul 15:09:12 15:10:43 12° 325° (NW) 15:12:14 145.980
NO-84 24 Jul 15:09:16 15:11:04 13° 2° (N) 15:12:55 435.350 FM
BEESAT 24 Jul 15:14:28 15:18:21 25° 95° (E) 15:22:13 436.000
Gurwin Techsat 1B 24 Jul 15:15:06 15:18:30 17° 269° (W) 15:21:55 435.225
BEESAT 2 24 Jul 15:23:43 15:26:39 19° 319° (NW) 15:29:37 435.950
ITUPSAT 1 24 Jul 15:26:54 15:31:10 32° 97° (E) 15:35:23 437.325
AO-7 24 Jul 15:32:50 15:41:12 79° 253° (WSW) 15:49:38 .
UKube-1 24 Jul 15:35:56 15:39:18 22° 295° (WNW) 15:42:40 .
PCSat 24 Jul 15:36:13 15:40:53 30° 250° (WSW) 15:45:32 145.827
DOVE 4 24 Jul 16:00:55 16:03:21 14° 58° (ENE) 16:05:51 437.250
MOZHAYETS 4 24 Jul 16:21:26 16:26:01 89° 109° (ESE) 16:30:34
SO-50 24 Jul 16:23:25 16:27:20 29° 245° (WSW) 16:31:18 436.795
O/OREOS (USA 219) 24 Jul 16:25:28 16:29:43 41° 299° (WNW) 16:33:58 437.305
ITAMSAT 1 24 Jul 16:44:40 16:48:23 20° 268° (W) 16:52:08 435.822/435.867
NO-84 24 Jul 16:46:35 16:49:36 23° 23° (NNE) 16:52:48 435.350 FM
CUTE-I 24 Jul 16:48:00 16:51:13 16° 59° (ENE) 16:54:28 437.470
XW-2F 24 Jul 16:51:36 16:52:02 10° 62° (ENE) 16:52:27 145.980 - 146.000
BEESAT 24 Jul 16:51:50 16:56:13 37° 291° (WNW) 17:00:33 436.000
CUBESAT XI-V 24 Jul 16:54:07 16:58:31 39° 98° (E) 17:02:54 437.345
RS-15 24 Jul 16:54:43 17:06:59 84° 304° (NW) 17:19:27 29.354- 29.394
YUBILEINY 24 Jul 17:04:42 17:07:20 12° 71° (ENE) 17:09:58 435.215
ITUPSAT 1 24 Jul 17:04:48 17:08:54 29° 294° (WNW) 17:12:59 437.325
KKS-1 24 Jul 17:08:00 17:11:54 29° 96° (E) 17:15:46 437.445
XW-2D 24 Jul 17:17:05 17:19:59 22° 68° (ENE) 17:22:55 145.860 - 145.880
XW-2B 24 Jul 17:26:49 17:30:00 27° 69° (ENE) 17:33:11 145.730 - 145.750
HO-68 24 Jul 17:28:08 17:32:56 20° 53° (NE) 17:37:42 435.675
AO-7 24 Jul 17:30:35 17:35:14 16° 272° (W) 17:39:55 .
DOVE 4 24 Jul 17:35:20 17:40:13 85° 258° (WSW) 17:45:24 437.250
STARS 24 Jul 17:39:49 17:43:32 26° 95° (E) 17:47:13 437.465
XW-2C 24 Jul 17:43:40 17:47:14 43° 73° (ENE) 17:50:48 145.795 - 145.815
CUTE 1.7 + AOD 2 24 Jul 17:52:37 17:53:35 11° 61° (ENE) 17:54:33 437.475
NUDT-PHONESAT 24 Jul 17:54:09 17:57:38 42° 72° (ENE) 18:01:07 437.300
MOZHAYETS 4 24 Jul 18:01:15 18:02:27 11° 301° (WNW) 18:03:38
LilacSat-2 24 Jul 18:06:03 18:09:49 88° 73° (ENE) 18:13:37 437.200
KAITUO 1B 24 Jul 18:07:22 18:11:02 64° 75° (ENE) 18:14:42 145.475/437.950
XW-2F 24 Jul 18:21:55 18:25:37 65° 259° (W) 18:29:21 145.980 - 146.000
NO-84 24 Jul 18:23:36 18:27:28 85° 220° (SW) 18:31:38 435.350 FM
CUTE-I 24 Jul 18:25:14 18:30:36 78° 257° (WSW) 18:36:01 437.470
CUBESAT XI-V 24 Jul 18:31:58 18:35:38 23° 295° (WNW) 18:39:19 437.345
KKS-1 24 Jul 18:44:32 18:48:24 29° 293° (WNW) 18:52:14 437.445
AAUSAT CUBESAT 2 24 Jul 18:50:25 18:52:23 13° 63° (ENE) 18:54:22 437.432
XW-2D 24 Jul 18:50:51 18:54:03 26° 264° (W) 18:57:16 145.860 - 145.880
YUBILEINY 24 Jul 18:53:34 19:02:14 64° 92° (E) 19:10:55 435.215
CUBEBUG 2 24 Jul 18:58:10 19:02:15 31° 69° (ENE) 19:06:18 437.445
XW-2B 24 Jul 19:01:14 19:04:09 21° 266° (W) 19:07:06 145.730 - 145.750
RS-15 24 Jul 19:10:33 19:21:34 36° 332° (NNW) 19:32:34 29.354- 29.394
HO-68 24 Jul 19:12:29 19:19:42 88° 72° (ENE) 19:26:55 435.675
STARS 24 Jul 19:15:59 19:19:52 31° 292° (WNW) 19:23:43 437.465
AO-73 24 Jul 19:18:43 19:21:14 15° 64° (ENE) 19:23:44 145.935
XW-2C 24 Jul 19:19:44 19:21:38 13° 269° (W) 19:23:32 145.795 - 145.815
XW-2A 24 Jul 19:21:26 19:24:45 57° 76° (ENE) 19:28:05 145.665 - 145.685
CUTE 1.7 + AOD 2 24 Jul 19:24:35 19:28:46 79° 258° (WSW) 19:33:00 437.475
STRAND 1 24 Jul 19:28:04 19:32:14 24° 94° (E) 19:36:21 437.568
NUDT-PHONESAT 24 Jul 19:29:55 19:31:44 13° 269° (W) 19:33:33 437.300
SEEDS 24 Jul 19:37:57 19:42:05 88° 252° (WSW) 19:46:17 437.485
UWE-3 24 Jul 19:56:54 20:01:28 72° 75° (ENE) 20:05:56 435.000/436.395/437.385
Tancredo 1 24 Jul 20:01:17 20:03:40 23° 137° (SE) 20:06:03 437.200
NO-84 24 Jul 20:02:41 20:04:32 13° 235° (SW) 20:06:26 435.350 FM
ZACube-1 24 Jul 20:12:05 20:16:28 58° 73° (ENE) 20:20:45 437.345
nSIGHT-1 24 Jul 20:14:30 20:16:03 13° 132° (SE) 20:17:38 .
AO-85 24 Jul 20:15:42 20:18:28 17° 40° (NE) 20:21:19 145.980
AAUSAT CUBESAT 2 24 Jul 20:23:19 20:27:21 59° 259° (W) 20:31:26 437.432
CUBEBUG 2 24 Jul 20:34:44 20:38:49 29° 265° (W) 20:42:52 437.445
Oscar 11 24 Jul 20:39:16 20:43:33 77° 75° (ENE) 20:47:52 .
YUBILEINY 24 Jul 20:52:06 20:59:38 31° 293° (WNW) 21:07:13 435.215
AO-73 24 Jul 20:52:40 20:57:02 58° 259° (W) 21:01:20 145.935
HO-68 24 Jul 21:03:47 21:08:17 17° 271° (W) 21:12:49 435.675
ISS 24 Jul 21:06:25 21:09:27 38° 140° (SE) 21:12:31 437.550
STRAND 1 24 Jul 21:06:45 21:11:34 42° 291° (WNW) 21:16:20 437.568
FO-29 24 Jul 21:11:05 21:16:10 21° 87° (E) 21:20:51 435.910
BEESAT 3 24 Jul 21:22:29 21:26:27 53° 52° (NE) 21:30:19 437.485
RS-15 24 Jul 21:29:00 21:39:01 27° 7° (N) 21:48:47 29.354- 29.394
DELFI C3 24 Jul 21:30:12 21:34:07 71° 74° (ENE) 21:38:03 145.870
Tancredo 1 24 Jul 21:36:05 21:38:55 43° 334° (NNW) 21:41:45 437.200
UWE-3 24 Jul 21:36:42 21:38:21 12° 271° (W) 21:40:01 435.000/436.395/437.385
nSIGHT-1 24 Jul 21:48:49 21:52:02 82° 328° (NNW) 21:55:17 .
ZACube-1 24 Jul 21:50:46 21:53:04 14° 270° (W) 21:55:22 437.345
TIGRISAT 24 Jul 21:54:04 21:56:54 17° 91° (E) 21:59:42 435.000
AO-85 24 Jul 21:55:03 21:59:15 71° 238° (WSW) 22:03:44 145.980
BEESAT 2 24 Jul 22:01:11 22:05:08 47° 51° (NE) 22:09:01 435.950
EO-88 24 Jul 22:04:22 22:07:59 69° 258° (WSW) 22:11:37 145.990 - 145.960
LO-87 24 Jul 22:11:15 22:13:46 18° 67° (ENE) 22:16:18 145.935 - 145.965
M-CUBED/EXP-1 PRIME 24 Jul 22:17:13 22:18:44 11° 94° (E) 22:20:16 437.505
ISS 24 Jul 22:42:56 22:45:57 35° 338° (NNW) 22:48:59 437.550
UNISAT 6 24 Jul 22:45:08 22:49:28 66° 101° (ESE) 22:53:42 437.425
PRISM 24 Jul 22:50:04 22:54:14 61° 102° (ESE) 22:58:21 437.425
FO-29 24 Jul 22:54:48 23:02:03 73° 288° (WNW) 23:08:24 435.910
BEESAT 3 24 Jul 23:01:16 23:03:35 15° 250° (WSW) 23:05:51 437.485
Tancredo 1 24 Jul 23:12:46 23:14:51 17° 353° (N) 23:16:57 437.200
ESTCUBE 1 24 Jul 23:17:16 23:21:42 69° 74° (ENE) 23:26:10 437.505/2401.250
SPROUT 24 Jul 23:23:26 23:26:40 21° 66° (ENE) 23:29:55 437.525
nSIGHT-1 24 Jul 23:26:09 23:28:48 23° 347° (NNW) 23:31:28 .
QB50P2 24 Jul 23:28:23 23:29:50 12° 89° (E) 23:31:17 145.880/145.840
TIGRISAT 24 Jul 23:29:42 23:33:50 44° 289° (WNW) 23:37:53 435.000
BEESAT 2 24 Jul 23:39:48 23:42:31 18° 249° (WSW) 23:45:13 435.950
EO-79 24 Jul 23:39:49 23:42:08 14° 91° (E) 23:44:25 145.935-145.965
NANOSAT C BR1 24 Jul 23:40:24 23:42:20 13° 90° (E) 23:44:17 145.865
LO-87 24 Jul 23:43:43 23:46:58 31° 263° (W) 23:50:15 145.935 - 145.965
RS-15 24 Jul 23:43:44 23:55:31 49° 40° (NE) 00:06:41 29.354- 29.394
M-CUBED/EXP-1 PRIME 24 Jul 23:49:00 23:53:36 83° 292° (WNW) 23:58:17 437.505
VELOX 1 25 Jul 00:04:37 00:08:52 49° 72° (ENE) 00:13:10 145.980
DX 1 25 Jul 00:12:26 00:15:37 20° 64° (ENE) 00:18:49 434.975-435.025
AIST 2D 25 Jul 00:19:33 00:23:02 77° 285° (WNW) 00:26:31 435.315
ISS 25 Jul 00:20:40 00:23:06 19° 358° (N) 00:25:31 437.550
UNISAT 6 25 Jul 00:23:36 00:25:37 13° 299° (WNW) 00:27:37 437.425
PRISM 25 Jul 00:26:56 00:29:00 14° 298° (WNW) 00:31:03 437.425
FO-29 25 Jul 00:41:44 00:45:40 16° 309° (NW) 00:49:24 435.910
DUCHIFAT 1 25 Jul 00:46:47 00:50:57 63° 101° (ESE) 00:55:04 145.980
Tancredo 1 25 Jul 00:48:40 00:51:00 21° 14° (NNE) 00:53:21 437.200
POLYITAN 1 25 Jul 00:48:47 00:53:01 83° 105° (ESE) 00:57:11 437.675
50 SAT 25 Jul 00:49:07 00:52:29 62° 73° (ENE) 00:55:52 437.505
O/OREOS (USA 219) 25 Jul 00:54:44 00:59:07 48° 63° (ENE) 01:03:28 437.305
UKube-1 25 Jul 00:54:48 00:58:44 35° 69° (ENE) 01:02:42 .
ESTCUBE 1 25 Jul 00:57:14 00:58:58 12° 271° (W) 01:00:43 437.505/2401.250
SPROUT 25 Jul 00:58:20 01:02:20 38° 262° (W) 01:06:21 437.525
QB50P2 25 Jul 01:01:52 01:06:03 64° 287° (WNW) 01:10:12 145.880/145.840
nSIGHT-1 25 Jul 01:03:31 01:05:59 20° 7° (N) 01:08:28 .
EO-79 25 Jul 01:14:06 01:18:12 51° 288° (WNW) 01:22:15 145.935-145.965
NANOSAT C BR1 25 Jul 01:14:17 01:18:25 56° 286° (WNW) 01:22:29 145.865
BUGSAT 1 25 Jul 01:16:59 01:20:50 37° 98° (E) 01:24:35 437.445
Oscar 19 25 Jul 01:24:52 01:28:45 21° 93° (E) 01:32:39 437.125/150
M-CUBED/EXP-1 PRIME 25 Jul 01:25:38 01:27:19 12° 306° (NW) 01:29:01 437.505
VELOX 1 25 Jul 01:42:46 01:45:36 17° 268° (W) 01:48:26 145.980
DX 1 25 Jul 01:47:23 01:51:31 41° 261° (W) 01:55:41 434.975-435.025
Gurwin Techsat 1B 25 Jul 01:48:31 01:52:42 23° 93° (E) 01:56:52 435.225
MOZHAYETS 4 25 Jul 01:50:34 01:52:09 12° 59° (ENE) 01:53:43
RS-15 25 Jul 01:56:42 02:08:29 62° 246° (WSW) 02:19:38 29.354- 29.394
ISS 25 Jul 01:57:24 02:00:17 28° 18° (NNE) 02:03:11 437.550
BEESAT 25 Jul 02:21:43 02:25:59 33° 67° (ENE) 02:30:15 436.000
Tancredo 1 25 Jul 02:23:47 02:26:45 84° 33° (NNE) 02:29:42 437.200
DUCHIFAT 1 25 Jul 02:24:09 02:26:06 13° 298° (WNW) 02:28:03 145.980
POLYITAN 1 25 Jul 02:27:33 02:28:07 10° 300° (WNW) 02:28:41 437.675
UKube-1 25 Jul 02:31:30 02:34:51 22° 266° (W) 02:38:13 .
ITUPSAT 1 25 Jul 02:34:29 02:39:00 43° 70° (ENE) 02:43:31 437.325
O/OREOS (USA 219) 25 Jul 02:35:11 02:38:07 17° 260° (W) 02:41:03 437.305
nSIGHT-1 25 Jul 02:39:46 02:42:56 49° 27° (NNE) 02:46:04 .
BUGSAT 1 25 Jul 02:52:58 02:55:55 19° 295° (WNW) 02:58:49 437.445
Oscar 19 25 Jul 03:03:21 03:08:20 50° 290° (WNW) 03:13:19 437.125/150
ITAMSAT 1 25 Jul 03:16:15 03:19:40 17° 91° (E) 03:23:03 435.822/435.867
MOZHAYETS 4 25 Jul 03:24:01 03:28:37 85° 257° (WSW) 03:33:12
Gurwin Techsat 1B 25 Jul 03:27:46 03:32:53 48° 290° (WNW) 03:37:58 435.225
AO-7 25 Jul 03:33:37 03:40:59 33° 96° (E) 03:48:17 .
ISS 25 Jul 03:33:43 03:36:57 59° 217° (SW) 03:40:09 437.550
CUBESAT XI-V 25 Jul 03:58:20 04:02:39 43° 71° (ENE) 04:07:01 437.345
BEESAT 25 Jul 03:59:39 04:03:45 28° 264° (W) 04:07:52 436.000
Tancredo 1 25 Jul 04:00:49 04:01:43 11° 228° (SW) 04:02:37 437.200
KKS-1 25 Jul 04:06:57 04:10:53 31° 68° (ENE) 04:14:51 437.445
ITUPSAT 1 25 Jul 04:13:19 04:16:59 22° 266° (W) 04:20:41 437.325
RS-15 25 Jul 04:13:49 04:18:05 13° 268° (W) 04:22:18 29.354- 29.394
nSIGHT-1 25 Jul 04:16:31 04:19:08 23° 224° (SW) 04:21:45 .
PCSat 25 Jul 04:35:46 04:40:23 29° 109° (ESE) 04:45:02 145.827
STARS 25 Jul 04:37:20 04:41:06 28° 67° (ENE) 04:44:53 437.465
ITAMSAT 1 25 Jul 04:54:24 04:59:32 61° 288° (WNW) 05:04:38 435.822/435.867
YUBILEINY 25 Jul 05:02:37 05:10:23 33° 68° (ENE) 05:18:03 435.215
AO-7 25 Jul 05:25:57 05:34:07 59° 296° (WNW) 05:42:14 .
DOVE 4 25 Jul 05:33:30 05:37:58 27° 93° (E) 05:42:18 437.250
CUBESAT XI-V 25 Jul 05:36:53 05:40:14 20° 268° (W) 05:43:35 437.345
KKS-1 25 Jul 05:43:39 05:47:26 27° 265° (W) 05:51:15 437.445
XW-2F 25 Jul 05:54:43 05:55:57 11° 90° (E) 05:57:11 145.980 - 146.000
STARS 25 Jul 06:13:28 06:17:21 30° 264° (W) 06:21:15 437.465
